Location: Härggis
(46.9540°N, 8.4897°E)
Time: 23:37:30
(UTC+00:00)

MOS 1 Rocket - Pass Details

Date: 27 May 2022
Orbit: 615 x 827 km, 97.5° (Epoch: 02 July)

Event Time Altitude Azimuth Distance (km) Brightness Sun altitude
Exits shadow 01:33:18 19° 170° (S) 1,456 4.5 -15.7°
Maximum altitude 01:36:18 83° 257° (WSW) 627 3.0 -15.5°
Drops below altitude 10° 01:40:38 10° 346° (NNW) 2,007 6.3 -15.1°
Sets 01:42:52 0° 347° (NNW) 2,936 7.2 -14.9°
